Weather History for KTCS - June, 2013

Change the Weather History Date:

Monday, June 24, 2013

  Actual Average Record
Temperature  
Mean Temperature 85 °F -  
Max Temperature 97 °F 94 °F 102 °F (2011)
Min Temperature 72 °F 64 °F 57 °F (2004)
Cooling Degree Days 20    
Month to date cooling degree days 407  
Year to date cooling degree days 655  
Since 1 June cooling degree days 407  
Growing Degree Days 34 (Base 50)    
Moisture  
Dew Point 23 °F    
Average Humidity 12    
Maximum Humidity 16    
Minimum Humidity 7    
Precipitation  
Precipitation 0.00 in - 0.44 in (2010)
Month to date precipitation T  
Year to date precipitation 0.28  
Sea Level Pressure  
Sea Level Pressure 29.72 in    
Wind  
Wind Speed 10 mph (SW)    
Max Wind Speed 26 mph    
Max Gust Speed 37 mph    
Visibility 8 miles    
Events      
T = Trace of Precipitation, MM = Missing Value Source: NWS Daily Summary

Daily Weather History Graph

Daily Weather History Graph

Search for Another Location

Airport or City:

Trip Planner

Search our weather history database for the weather conditions in past years. The results will help you decide how hot, cold, wet, or windy it might be!

Date:

Astronomy

Jun. 24, 2013 Rise Set
Actual Time 6:01 AM MDT 8:22 PM MDT
Civil Twilight 5:32 AM MDT 8:50 PM MDT
Nautical Twilight 4:56 AM MDT 9:26 PM MDT
Astronomical Twilight 4:18 AM MDT 10:04 PM MDT
Moon 9:33 PM MDT (6/24) 7:26 AM MDT (6/24)
Length of Visible Light 15h 18m
Length of Day
14h 20m
Full, 97% of the Moon is Illuminated
Jun 24
Full
Jun 29
Last Quarter
Jul 8
New
Jul 15
First Quarter
Jul 22
Full

Hourly Weather History & Observations

Time (MDT) Temp. Dew Point Humidity Pressure Visibility Wind Dir Wind Speed Gust Speed Precip Events Conditions
12:53 AM 73.9 °F 19.0 °F 13% 29.66 in 10.0 mi WSW 4.6 mph - N/A   Clear
1:53 AM 77.0 °F 19.9 °F 12% 29.65 in 10.0 mi WSW 5.8 mph - N/A   Clear
2:53 AM 75.0 °F 18.0 °F 12% 29.65 in 10.0 mi West 6.9 mph - N/A   Partly Cloudy
3:53 AM 72.0 °F 18.0 °F 13% 29.67 in 10.0 mi Calm Calm - N/A   Partly Cloudy
4:53 AM 73.0 °F 18.0 °F 12% 29.69 in 10.0 mi West 3.5 mph - N/A   Partly Cloudy
5:53 AM 77.0 °F 23.0 °F 13% 29.71 in 10.0 mi West 4.6 mph - N/A   Mostly Cloudy
6:53 AM 73.0 °F 24.1 °F 16% 29.74 in 10.0 mi Calm Calm - N/A   Mostly Cloudy
7:53 AM 78.1 °F 25.0 °F 14% 29.75 in 10.0 mi Calm Calm - N/A   Scattered Clouds
8:53 AM 80.1 °F 26.1 °F 14% 29.77 in 10.0 mi SSW 5.8 mph - N/A   Clear
9:53 AM 84.9 °F 28.0 °F 13% 29.76 in 10.0 mi South 11.5 mph 20.7 mph N/A   Clear
10:53 AM 87.1 °F 28.9 °F 12% 29.75 in 10.0 mi South 17.3 mph - N/A   Clear
11:53 AM 91.0 °F 28.0 °F 10% 29.72 in 7.0 mi SSW 12.7 mph 21.9 mph N/A   Clear
12:53 PM 95.0 °F 24.1 °F 8% 29.70 in 10.0 mi SW 23.0 mph 36.8 mph N/A   Clear
1:53 PM 96.1 °F 21.0 °F 7% 29.67 in 10.0 mi SSW 15.0 mph 28.8 mph N/A   Clear
2:53 PM 93.0 °F 24.1 °F 8% 29.67 in 3.0 mi West 15.0 mph 21.9 mph N/A   Haze
3:00 PM 96.8 °F 21.2 °F 7% 29.96 in 4.0 mi SSW 18.4 mph 24.2 mph N/A   Haze
3:11 PM 93.2 °F 24.8 °F 9% 29.95 in 5.0 mi West 15.0 mph - N/A   Haze
3:24 PM 95.0 °F 23.0 °F 8% 29.95 in 5.0 mi SSW 13.8 mph - N/A   Haze
3:53 PM 95.0 °F 21.9 °F 7% 29.66 in 6.0 mi SW 15.0 mph - N/A   Haze
4:05 PM 95.0 °F 23.0 °F 8% 29.94 in 6.0 mi SW 24.2 mph 33.4 mph N/A   Haze
4:53 PM 95.0 °F 23.0 °F 8% 29.63 in 6.0 mi SW 11.5 mph 24.2 mph N/A   Haze
5:53 PM 93.0 °F 21.0 °F 7% 29.62 in 8.0 mi SW 19.6 mph 26.5 mph N/A   Partly Cloudy
6:53 PM 93.0 °F 23.0 °F 8% 29.63 in 8.0 mi SW 12.7 mph - N/A   Partly Cloudy
7:53 PM 90.0 °F 25.0 °F 10% 29.65 in 10.0 mi WSW 12.7 mph - N/A   Mostly Cloudy
8:53 PM 86.0 °F 24.1 °F 10% 29.67 in 10.0 mi WSW 6.9 mph - N/A   Mostly Cloudy
9:53 PM 82.0 °F 23.0 °F 11% 29.70 in 10.0 mi West 8.1 mph - N/A   Partly Cloudy
10:53 PM 79.0 °F 21.9 °F 12% 29.71 in 10.0 mi West 8.1 mph - N/A   Partly Cloudy
11:53 PM 75.0 °F 21.0 °F 13% 29.72 in 10.0 mi WNW 8.1 mph - N/A   Clear